Location: American Medical Response
(33.3472°N, 96.5511°W)
Time: 22:02:19
(UTC+00:00)

SL-4 R/B - Pass Details

Date: 11 July 2022
Orbit: 425 x 653 km, 51.6° (Epoch: 17 August)

Event Time Altitude Azimuth Distance (km) Brightness Sun altitude
Rises 02:09:03 0° 201° (SSW) 2,388 5.2 -6.4°
Reaches altitude 10° 02:11:22 10° 188° (S) 1,511 4.0 -6.8°
Maximum altitude 02:14:14 26° 130° (SE) 870 2.5 -7.3°
Drops below altitude 10° 02:17:07 10° 71° (ENE) 1,514 3.9 -7.8°
Sets 02:19:26 0° 58° (ENE) 2,395 5.0 -8.2°
